Tracking 20228 objects as of 17-Jan-2020
HD Live streaming from Space Station
objects crossing your sky now

FENGYUN 1C DEB

Track FENGYUN 1C DEB now!
10-day predictions


NORAD ID: 30358
Int'l Code: 1999-025ABV
Perigee: 803.7 km
Apogee: 941.2 km
Inclination: 98.7 °
Period: 102.3 minutes
Semi major axis: 7243 km
RCS: 0.037 m2 (small)
Launch date: May 10, 1999
Source: People's Republic of China (PRC)
Launch site: Taiyaun Space Center, China (TSC)

Note: This is SATELLITE DEBRIS
aabbcc
Your satellite tracking list
Your tracking list is empty




NASA's NSSDC Master Catalog

Two Line Element Set (TLE):
1 30358U 99025ABV 20016.54243267 +.00000442 +00000-0 +27225-3 0  9997
2 30358 098.7061 259.1784 0094909 229.1780 249.4391 14.08252679664729
Source of the keplerian elements: AFSPC